When you browse on this site, cookies collect data to enhance your experience and personalize the content and advertising you see.
Visit our Privacy Policy to learn more. By continuing to use the site, you agree to this use of cookies and data.

Hourly Weather Carmarthen

Today, 6 July, Monday

Time Temperature Precipitation Wind Pressure Humidity
00:00 +8°C° 0 mm 9 mps 754 mmHg 88%
01:00 +8°C° 0 mm 9 mps 755 mmHg 87%
02:00 +10°C° 0 mm 9 mps 755 mmHg 87%
03:00 +10°C° 0 mm 9 mps 756 mmHg 86%
04:00 +10°C° 0 mm 9 mps 757 mmHg 87%
05:00 +10°C° 0 mm 9 mps 757 mmHg 88%
06:00 +10°C° 0 mm 8 mps 758 mmHg 89%
07:00 +11°C° 0 mm 8 mps 759 mmHg 84%
08:00 +12°C° 0 mm 8 mps 760 mmHg 79%
09:00 +12°C° 0 mm 8 mps 761 mmHg 74%
10:00 +13°C° 0 mm 8 mps 762 mmHg 71%
11:00 +15°C° 0 mm 7 mps 762 mmHg 69%
12:00 +15°C° 0 mm 7 mps 762 mmHg 66%
13:00 +15°C° 0 mm 6 mps 763 mmHg 66%
14:00 +15°C° 0 mm 6 mps 763 mmHg 67%
15:00 +16°C° 0 mm 6 mps 764 mmHg 67%
16:00 +15°C° 0 mm 5 mps 764 mmHg 69%
17:00 +15°C° 0 mm 5 mps 764 mmHg 72%
18:00 +14°C° 0 mm 5 mps 764 mmHg 74%
19:00 +13°C° 0 mm 4 mps 764 mmHg 80%
20:00 +11°C° 0 mm 3 mps 764 mmHg 85%
21:00 +10°C° 0 mm 2 mps 764 mmHg 91%
22:00 +10°C° 0 mm 2 mps 764 mmHg 91%
23:00 +9°C° 0 mm 2 mps 763 mmHg 92%

Tomorrow, 7 July, Tuesday

Time Temperature Precipitation Wind Pressure Humidity
00:00 +9°C° 0 mm 2 mps 763 mmHg 93%
01:00 +9°C° 0 mm 2 mps 763 mmHg 93%
02:00 +9°C° 0 mm 3 mps 762 mmHg 94%
03:00 +9°C° 0 mm 3 mps 762 mmHg 94%
04:00 +9°C° 0.1 mm 3 mps 761 mmHg 94%
05:00 +9°C° 0.1 mm 3 mps 761 mmHg 95%
06:00 +9°C° 0.1 mm 3 mps 760 mmHg 95%
07:00 +8°C° 0.5 mm 4 mps 760 mmHg 96%
08:00 +10°C° 0.5 mm 4 mps 759 mmHg 96%
09:00 +9°C° 0.5 mm 5 mps 759 mmHg 97%
10:00 +9°C° 0.9 mm 5 mps 758 mmHg 96%
11:00 +9°C° 0.9 mm 6 mps 758 mmHg 96%
12:00 +9°C° 0.9 mm 6 mps 757 mmHg 96%
13:00 +10°C° 0.6 mm 5 mps 757 mmHg 96%
14:00 +12°C° 0.6 mm 4 mps 757 mmHg 96%
15:00 +14°C° 0.6 mm 2 mps 756 mmHg 96%
16:00 +13°C° 0.3 mm 3 mps 756 mmHg 95%
17:00 +13°C° 0.3 mm 4 mps 756 mmHg 95%
18:00 +12°C° 0.3 mm 4 mps 756 mmHg 95%
19:00 +12°C° 0 mm 4 mps 757 mmHg 95%
20:00 +10°C° 0 mm 5 mps 757 mmHg 95%
21:00 +9°C° 0 mm 5 mps 758 mmHg 95%
22:00 +9°C° 0 mm 5 mps 758 mmHg 95%
23:00 +8°C° 0 mm 5 mps 759 mmHg 96%

Day after tomorrow, 8 July, Wednesday

Time Temperature Precipitation Wind Pressure Humidity
00:00 +7°C° 0 mm 5 mps 759 mmHg 96%
01:00 +7°C° 0 mm 4 mps 759 mmHg 96%
02:00 +7°C° 0 mm 4 mps 760 mmHg 96%
03:00 +7°C° 0 mm 4 mps 760 mmHg 96%
04:00 +8°C° 0 mm 4 mps 760 mmHg 96%
05:00 +9°C° 0 mm 3 mps 760 mmHg 96%
06:00 +10°C° 0 mm 3 mps 761 mmHg 95%
07:00 +12°C° 0 mm 2 mps 761 mmHg 90%
08:00 +13°C° 0 mm 2 mps 761 mmHg 85%
09:00 +15°C° 0 mm 1 mps 761 mmHg 81%
10:00 +15°C° 0 mm 2 mps 761 mmHg 79%
11:00 +16°C° 0 mm 2 mps 761 mmHg 77%
12:00 +16°C° 0 mm 2 mps 761 mmHg 75%
13:00 +14°C° 0.2 mm 3 mps 761 mmHg 81%
14:00 +13°C° 0.2 mm 3 mps 761 mmHg 87%
15:00 +12°C° 0.2 mm 4 mps 761 mmHg 93%
16:00 +12°C° 0.4 mm 4 mps 760 mmHg 94%
17:00 +11°C° 0.4 mm 4 mps 760 mmHg 95%
18:00 +11°C° 0.4 mm 4 mps 759 mmHg 96%
19:00 +10°C° 2 mm 5 mps 759 mmHg 97%
20:00 +10°C° 2 mm 7 mps 758 mmHg 97%
21:00 +11°C° 2 mm 8 mps 757 mmHg 97%
22:00 +11°C° 0.8 mm 8 mps 757 mmHg 97%
23:00 +12°C° 0.8 mm 8 mps 756 mmHg 97%

9 July, Thursday

Time Temperature Precipitation Wind Pressure Humidity
00:00 +13°C° 0.8 mm 8 mps 755 mmHg 97%
01:00 +13°C° 0.2 mm 8 mps 754 mmHg 97%
02:00 +13°C° 0.2 mm 8 mps 753 mmHg 96%
03:00 +15°C° 0.2 mm 8 mps 752 mmHg 96%
04:00 +15°C° 0.3 mm 8 mps 751 mmHg 96%
05:00 +15°C° 0.3 mm 8 mps 751 mmHg 96%
06:00 +15°C° 0.3 mm 8 mps 750 mmHg 96%
07:00 +15°C° 0.1 mm 8 mps 751 mmHg 95%
08:00 +15°C° 0.1 mm 8 mps 751 mmHg 93%
09:00 +15°C° 0.1 mm 9 mps 751 mmHg 92%
10:00 +15°C° 0 mm 9 mps 752 mmHg 88%
11:00 +13°C° 0 mm 10 mps 753 mmHg 83%
12:00 +13°C° 0 mm 10 mps 753 mmHg 79%
13:00 +13°C° 0 mm 11 mps 754 mmHg 76%
14:00 +13°C° 0 mm 11 mps 755 mmHg 73%
15:00 +13°C° 0 mm 11 mps 755 mmHg 70%
16:00 +13°C° 0 mm 10 mps 756 mmHg 71%
17:00 +12°C° 0 mm 10 mps 756 mmHg 72%
18:00 +12°C° 0 mm 10 mps 757 mmHg 72%
19:00 +11°C° 0 mm 10 mps 757 mmHg 75%
20:00 +10°C° 0 mm 9 mps 758 mmHg 77%
21:00 +8°C° 0 mm 9 mps 759 mmHg 79%
22:00 +8°C° 0 mm 9 mps 759 mmHg 81%
23:00 +8°C° 0 mm 9 mps 759 mmHg 83%

10 July, Friday

Time Temperature Precipitation Wind Pressure Humidity
00:00 +7°C° 0 mm 9 mps 759 mmHg 85%
01:00 +7°C° 0 mm 8 mps 759 mmHg 87%
02:00 +7°C° 0 mm 8 mps 760 mmHg 89%
03:00 +6°C° 0 mm 7 mps 760 mmHg 92%
04:00 +8°C° 0 mm 7 mps 760 mmHg 91%
05:00 +8°C° 0 mm 7 mps 760 mmHg 89%
06:00 +9°C° 0 mm 7 mps 761 mmHg 88%
07:00 +10°C° 0 mm 7 mps 761 mmHg 85%
08:00 +11°C° 0 mm 6 mps 761 mmHg 81%
09:00 +13°C° 0 mm 6 mps 762 mmHg 78%
10:00 +14°C° 0.1 mm 7 mps 762 mmHg 75%
11:00 +14°C° 0.1 mm 7 mps 762 mmHg 73%
12:00 +15°C° 0.1 mm 7 mps 763 mmHg 71%
13:00 +15°C° 0 mm 7 mps 763 mmHg 69%
14:00 +15°C° 0 mm 7 mps 763 mmHg 68%
15:00 +15°C° 0 mm 8 mps 763 mmHg 66%
16:00 +15°C° 0 mm 7 mps 763 mmHg 68%
17:00 +14°C° 0 mm 7 mps 764 mmHg 70%
18:00 +14°C° 0 mm 7 mps 764 mmHg 71%
19:00 +11°C° 0 mm 6 mps 764 mmHg 77%
20:00 +10°C° 0 mm 5 mps 764 mmHg 83%
21:00 +8°C° 0 mm 4 mps 765 mmHg 89%
22:00 +8°C° 0 mm 4 mps 765 mmHg 91%
23:00 +7°C° 0 mm 4 mps 765 mmHg 93%

11 July, Saturday

Time Temperature Precipitation Wind Pressure Humidity
00:00 +6°C° 0 mm 4 mps 765 mmHg 94%
01:00 +6°C° 0 mm 4 mps 765 mmHg 94%
02:00 +6°C° 0 mm 4 mps 765 mmHg 95%
03:00 +6°C° 0 mm 4 mps 765 mmHg 95%
04:00 +6°C° 0 mm 4 mps 766 mmHg 94%
05:00 +7°C° 0 mm 4 mps 766 mmHg 93%
06:00 +7°C° 0 mm 4 mps 766 mmHg 92%
07:00 +10°C° 0 mm 4 mps 766 mmHg 87%
08:00 +12°C° 0 mm 3 mps 766 mmHg 82%
09:00 +13°C° 0 mm 3 mps 766 mmHg 77%
10:00 +14°C° 0 mm 3 mps 766 mmHg 75%
11:00 +16°C° 0 mm 2 mps 767 mmHg 73%
12:00 +16°C° 0 mm 2 mps 767 mmHg 72%
13:00 +16°C° 0.1 mm 2 mps 767 mmHg 72%
14:00 +17°C° 0.1 mm 3 mps 767 mmHg 72%
15:00 +17°C° 0.1 mm 3 mps 767 mmHg 72%
16:00 +16°C° 0 mm 3 mps 767 mmHg 75%
17:00 +16°C° 0 mm 3 mps 767 mmHg 78%
18:00 +14°C° 0 mm 3 mps 767 mmHg 81%
19:00 +13°C° 0 mm 3 mps 767 mmHg 85%
20:00 +11°C° 0 mm 3 mps 767 mmHg 88%
21:00 +10°C° 0 mm 2 mps 768 mmHg 92%
22:00 +9°C° 0 mm 2 mps 768 mmHg 92%
23:00 +9°C° 0 mm 2 mps 768 mmHg 92%
Show more